CAPE
0 0 0 0 1 3 2 0 0 0 0 0 0 0 0 0 0 0 0 0 0 0 0 0 0 0 0 0 0 0 0 0 0 0 0 0 0 0 0 0 0 0 0 0 0 0 0
0 0 0 0 0 1 2 1 0 0 0 0 0 0 0 0 0 0 0 0 0 0 0 0 0 0 0 0 0 0 0 0 0 0 0 0 0 0 0 0 0 0 0 0 0 0 0
20 0 0 0 0 0 1 1 0 0 0 0 0 0 0 0 0 0 0 0 0 0 0 0 0 0 0 0 0 0 0 0 0 0 0 0 0 0 0 0 0 0 0 0 0 0 0
27 3 0 0 0 0 0 0 1 0 0 0 0 0 0 0 0 0 0 0 0 0 0 0 0 0 0 0 0 0 0 0 0 0 0 0 0 0 0 0 0 0 0 0 0 0 0
39 20 2 0 0 0 0 0 0 0 0 0 0 0 0 0 0 0 0 0 0 0 0 0 0 0 0 0 0 0 0 0 0 0 0 0 0 0 0 0 0 0 0 0 0 0 0
35 29 11 0 0 1 0 2 0 0 0 0 0 0 0 0 0 0 0 0 0 0 0 0 0 0 0 0 0 0 0 0 0 0 0 0 0 0 0 0 0 0 0 0 0 0 0
25 18 17 13 2 3 6 2 0 0 0 0 0 0 0 0 0 0 0 0 0 0 0 0 0 0 0 0 0 0 0 0 0 0 0 0 0 0 0 0 0 0 0 0 0 0 0
28 16 2 0 0 0 3 10 0 0 0 0 0 0 0 0 0 0 0 0 0 0 0 0 0 0 0 0 0 0 0 0 0 0 0 0 0 0 0 0 0 0 0 0 0 0 0
24 21 12 1 2 3 6 11 1 0 0 0 0 0 0 0 0 0 0 0 0 0 0 0 0 0 0 0 0 0 0 0 0 0 0 0 0 0 0 0 0 0 0 0 0 0 0
15 14 18 15 20 18 12 13 0 0 0 0 0 0 0 0 0 0 0 0 0 0 0 0 0 0 0 0 0 0 0 0 0 0 0 0 0 0 0 0 0 0 0 0 0 0 0
2 7 20 17 15 19 3 1 3 1 0 0 0 0 0 0 0 0 0 0 0 0 0 0 0 0 0 0 0 0 0 0 0 0 0 0 0 0 0 0 0 0 0 0 0 0 0
0 0 4 11 12 7 7 4 1 3 0 0 0 0 0 0 0 0 0 0 0 0 0 0 0 0 0 0 0 0 0 0 0 0 0 0 0 0 0 0 0 0 0 0 0 0 0
0 0 0 16 2 3 0 4 4 4 3 0 0 0 0 0 0 0 0 0 0 0 0 0 0 0 0 0 0 0 0 0 0 0 0 0 0 0 0 0 0 0 0 0 0 0 0
0 0 0 0 1 1 1 2 3 1 3 0 0 0 0 0 0 0 0 0 0 0 0 0 0 0 0 0 0 0 0 0 0 0 0 0 0 0 0 0 0 0 0 0 0 0 0
0 0 0 0 0 0 1 1 2 0 2 0 0 0 0 0 0 0 0 0 0 0 0 0 0 0 0 0 0 0 0 0 0 0 0 0 0 0 0 0 0 0 0 0 0 0 0
0 0 0 0 0 0 0 1 1 1 0 0 0 0 0 0 0 0 0 0 0 0 0 0 0 0 0 0 0 0 0 0 0 0 0 0 0 0 0 0 0 0 0 0 0 0 0
1 1 0 0 0 0 0 0 2 2 1 0 0 0 0 0 0 0 0 0 0 0 0 0 0 0 0 0 0 0 0 0 0 0 0 0 0 0 0 0 0 0 0 0 0 0 0
3 3 0 0 0 0 0 0 0 1 0 0 0 0 0 0 0 0 0 0 0 0 0 0 0 0 0 0 0 0 0 0 0 0 0 0 0 0 0 0 0 0 0 0 0 0 0
3 3 1 0 0 0 0 0 0 0 1 0 0 0 0 0 0 0 0 0 0 0 0 0 0 0 0 0 0 0 0 0 0 0 0 0 0 0 0 0 0 0 0 0 0 0 0
4 3 3 0 0 0 0 0 0 1 2 0 0 0 0 0 0 0 0 0 0 0 0 0 0 0 0 0 0 0 0 0 0 0 0 0 0 0 0 0 0 0 0 0 0 0 0
1 2 1 0 0 2 0 0 0 0 0 0 0 0 0 0 0 0 0 0 0 0 0 0 0 0 0 0 0 0 0 0 0 0 0 0 0 0 0 0 0 0 0 0 0 0 0
2 2 2 1 0 8 0 0 0 0 0 0 0 0 0 0 0 0 0 0 0 0 0 0 0 0 0 0 0 0 0 0 0 0 0 0 0 0 0 0 0 0 0 0 0 0 0
7 4 4 2 0 16 0 0 0 0 0 1 0 0 0 0 0 0 0 0 0 0 0 0 0 0 0 0 0 0 0 0 0 0 0 0 0 0 0 0 0 0 0 0 0 0 0
21 13 7 6 4 16 0 0 0 0 1 2 0 0 0 0 0 0 0 0 0 0 0 0 0 0 0 0 0 0 0 0 0 0 0 0 0 0 0 0 0 0 0 0 0 0 0
29 29 15 12 8 11 7 0 0 0 1 0 0 0 0 0 0 0 0 0 0 0 0 0 0 0 0 0 0 0 0 0 0 0 0 0 0 0 0 0 0 0 0 0 0 0 0
31 35 19 19 14 7 8 2 0 0 0 0 0 0 0 0 0 0 0 0 0 0 0 0 0 0 0 0 0 0 0 0 0 0 0 0 0 0 0 0 0 0 0 0 0 0 0
25 36 40 19 22 12 7 2 3 2 0 0 0 0 1 0 0 0 0 0 0 0 0 0 0 0 0 0 0 0 0 0 0 0 0 0 0 0 0 0 0 0 0 0 0 0 0
36 42 53 39 25 19 10 13 13 2 0 0 0 0 1 0 0 0 0 0 0 0 0 0 0 0 0 0 0 0 0 0 0 0 0 0 0 0 0 0 0 0 0 0 0 0 0
32 42 55 46 34 22 15 18 22 5 0 0 0 0 0 0 0 0 0 0 0 0 0 0 0 0 0 0 0 0 0 0 0 0 0 0 0 0 0 0 0 0 0 0 0 0 0
CIN
0 0 0 0 0 0 0 0 0 0 0 0 0 0 0 0 0 0 0 0 0 0 0 0 0 0 0 0 0 0 0 0 0 0 0 0 0 0 0 0 0 0 0 0 0 0 0
0 0 0 0 0 0 0 0 0 0 0 0 0 0 0 0 0 0 0 0 0 0 0 0 0 0 0 0 0 0 0 0 0 0 0 0 0 0 0 0 0 0 0 0 0 0 0
0 0 0 0 0 0 0 0 0 0 0 0 0 0 0 0 0 0 0 0 0 0 0 0 0 0 0 0 0 0 0 0 0 0 0 0 0 0 0 0 0 0 0 0 0 0 0
0 -1 0 0 0 0 0 0 0 0 0 0 0 0 0 0 0 0 0 0 0 0 0 0 0 0 0 0 0 0 0 0 0 0 0 0 0 0 0 0 0 0 0 0 0 0 0
0 -1 -1 0 0 0 0 0 0 0 0 0 0 0 0 0 0 0 0 0 0 0 0 0 0 0 0 0 0 0 0 0 0 0 0 0 0 0 0 0 0 0 0 0 0 0 0
-1 -1 -1 0 0 0 0 0 0 0 0 0 0 0 0 0 0 0 0 0 0 0 0 0 0 0 0 0 0 0 0 0 0 0 0 0 0 0 0 0 0 0 0 0 0 0 0
-14 -6 -6 -7 0 0 0 0 0 0 0 0 0 0 0 0 0 0 0 0 0 0 0 0 0 0 0 0 0 0 0 0 0 0 0 0 0 0 0 0 0 0 0 0 0 0 0
-8 -15 -15 0 0 -3 0 0 0 0 0 0 0 0 0 0 0 0 0 0 0 0 0 0 0 0 0 0 0 0 0 0 0 0 0 0 0 0 0 0 0 0 0 0 0 0 0
-10 -10 -12 -25 -18 -3 0 0 -1 0 0 0 0 0 0 0 0 0 0 0 0 0 0 0 0 0 0 0 0 0 0 0 0 0 0 0 0 0 0 0 0 0 0 0 0 0 0
-11 -12 -11 -15 0 0 0 -1 -1 0 0 0 0 0 0 0 0 0 0 0 0 0 0 0 0 0 0 0 0 0 0 0 0 0 0 0 0 0 0 0 0 0 0 0 0 0 0
-14 -7 -5 -5 -2 0 0 0 -2 -3 -1 0 0 0 0 0 0 0 0 0 0 0 0 0 0 0 0 0 0 0 0 0 0 0 0 0 0 0 0 0 0 0 0 0 0 0 0
0 0 0 -4 -2 0 -3 -6 0 -6 -2 -2 0 0 0 0 0 0 0 0 0 0 0 0 0 0 0 0 0 0 0 0 0 0 0 0 0 0 0 0 0 0 0 0 0 0 0
0 0 0 -4 0 0 0 -13 -10 -16 -8 -1 0 0 0 0 0 0 0 0 0 0 0 0 0 0 0 0 0 0 0 0 0 0 0 0 0 0 0 0 0 0 0 0 0 0 0
0 0 0 -1 0 0 0 0 0 0 -5 -1 0 0 0 0 0 0 0 0 0 0 0 0 0 0 0 0 0 0 0 0 0 0 0 0 0 0 0 0 0 0 0 0 0 0 0
0 0 0 0 0 0 0 0 0 0 0 0 0 0 0 0 0 0 0 0 0 0 0 0 0 0 0 0 0 0 0 0 0 0 0 0 0 0 0 0 0 0 0 0 0 0 0
0 0 0 0 0 0 0 0 0 0 0 0 0 0 0 0 0 0 0 0 0 0 0 0 0 0 0 0 0 0 0 0 0 0 0 0 0 0 0 0 0 0 0 0 0 0 0
0 0 0 0 0 0 0 0 0 0 0 0 0 0 0 0 0 0 0 0 0 0 0 0 0 0 0 0 0 0 0 0 0 0 0 0 0 0 0 0 0 0 0 0 0 0 0
0 0 0 0 0 0 0 0 0 0 0 0 0 0 0 0 0 0 0 0 0 0 0 0 0 0 0 0 0 0 0 0 0 0 0 0 0 0 0 0 0 0 0 0 0 0 0
0 0 0 0 0 0 0 0 0 0 0 0 0 0 0 0 0 0 0 0 0 0 0 0 0 0 0 0 0 0 0 0 0 0 0 0 0 0 0 0 0 0 0 0 0 0 0
0 0 0 0 0 0 0 0 0 0 0 0 0 0 0 0 0 0 0 0 0 0 0 0 0 0 0 0 0 0 0 0 0 0 0 0 0 0 0 0 0 0 0 0 0 0 0
0 0 0 0 0 0 0 0 0 0 0 0 0 0 0 0 0 0 0 0 0 0 0 0 0 0 0 0 0 0 0 0 0 0 0 0 0 0 0 0 0 0 0 0 0 0 0
0 0 0 0 0 0 0 0 0 0 0 0 0 0 0 0 0 0 0 0 0 0 0 0 0 0 0 0 0 0 0 0 0 0 0 0 0 0 0 0 0 0 0 0 0 0 0
0 0 0 0 0 0 0 0 0 0 0 0 0 0 0 0 0 0 0 0 0 0 0 0 0 0 0 0 0 0 0 0 0 0 0 0 0 0 0 0 0 0 0 0 0 0 0
0 0 0 0 0 0 0 0 0 0 -5 0 0 0 0 0 0 0 0 0 0 0 0 0 0 0 0 0 0 0 0 0 0 0 0 0 0 0 0 0 0 0 0 0 0 0 0
0 0 0 0 0 0 0 0 0 0 -1 0 0 0 0 0 0 0 0 0 0 0 0 0 0 0 0 0 0 0 0 0 0 0 0 0 0 0 0 0 0 0 0 0 0 0 0
0 0 0 0 0 0 0 0 0 0 0 0 0 0 0 0 0 0 0 0 0 0 0 0 0 0 0 0 0 0 0 0 0 0 0 0 0 0 0 0 0 0 0 0 0 0 0
0 0 0 0 0 0 0 0 0 0 0 0 0 0 0 0 0 0 0 0 0 0 0 0 0 0 0 0 0 0 0 0 0 0 0 0 0 0 0 0 0 0 0 0 0 0 0
0 0 0 0 0 0 0 0 0 0 0 0 0 0 0 0 0 0 0 0 0 0 0 0 0 0 0 0 0 0 0 0 0 0 0 0 0 0 0 0 0 0 0 0 0 0 0
0 0 0 0 0 0 0 0 0 0 0 0 -1 0 0 0 -2 0 0 0 0 0 0 0 0 0 0 0 0 0 0 0 0 0 0 0 0 0 0 0 0 0 0 0 0 0 0
Wind_Speed
6 7 8 9 10 12 12 12 12 13 14 14 14 13 13 12 11 12 12 10 9 10 10 10 8 8 2 4 1 5 9 2 2 2 4 3 3 5 5 5 3 5 2 4 4 7 6
5 5 5 7 9 11 12 13 12 13 13 14 14 14 14 13 13 12 11 12 13 10 9 10 7 6 2 2 1 5 7 4 5 4 3 4 5 6 8 4 4 2 6 5 3 3 3
5 5 5 5 8 10 11 12 12 13 13 13 15 15 16 15 14 13 12 12 13 13 10 6 7 1 3 2 1 4 7 4 5 3 5 3 7 7 6 5 5 4 4 2 1 2 2
5 5 4 3 5 7 9 10 10 12 14 15 15 15 15 15 15 15 15 14 12 13 8 3 3 1 2 1 2 4 2 5 7 10 9 9 12 12 5 5 4 3 3 1 2 3 1
6 4 4 4 5 6 7 8 9 9 11 15 15 16 16 16 15 17 17 17 11 7 3 4 2 1 1 1 3 0 3 5 4 4 5 4 7 6 3 4 3 4 1 1 1 5 4
7 1 3 4 6 7 8 9 9 10 11 13 14 15 16 16 16 16 17 9 4 3 2 2 2 3 1 2 1 2 3 4 4 2 3 7 6 4 3 2 1 2 1 2 3 3 3
11 10 7 6 7 8 9 8 9 10 11 12 13 14 16 17 18 17 8 3 5 3 3 3 2 3 1 0 2 6 3 3 3 8 3 4 4 0 4 3 3 5 2 2 1 3 3
10 10 9 9 9 9 10 8 8 9 10 12 14 15 16 18 19 11 1 5 2 2 3 0 1 2 1 3 3 3 1 3 3 2 1 5 1 2 6 3 3 2 2 2 1 2 4
9 10 11 12 15 14 12 9 7 9 11 12 14 16 17 20 16 3 3 1 4 1 2 3 2 2 2 4 2 1 1 3 3 3 2 4 1 4 2 2 2 2 2 2 2 1 2
7 11 13 15 14 13 14 7 6 8 11 12 13 16 18 25 5 4 2 6 6 2 5 4 1 1 3 4 2 1 2 4 5 4 4 3 1 2 1 0 3 1 1 2 2 2 2
10 10 10 8 13 14 13 12 5 7 11 12 13 14 15 9 2 2 5 7 3 4 2 1 1 1 2 3 4 3 3 4 6 4 3 1 2 2 1 1 2 2 1 2 2 3 1
5 6 7 6 11 14 14 12 10 9 9 11 12 14 13 1 1 4 6 6 4 7 6 2 1 1 3 3 1 1 3 7 3 4 4 2 1 2 2 2 2 5 3 4 3 2 1
3 5 7 7 7 11 12 14 12 10 8 13 13 14 7 0 2 6 4 4 6 4 2 2 2 1 3 2 1 1 2 2 4 3 1 1 0 1 1 2 2 2 3 3 2 3 2
5 5 6 7 5 8 11 13 14 13 12 12 12 14 2 3 4 6 4 6 3 3 5 2 2 3 3 5 0 0 2 1 2 4 3 3 3 2 1 2 1 1 2 4 2 2 4
6 4 6 7 6 6 9 11 13 14 14 10 12 2 2 2 2 2 6 2 7 6 2 6 2 3 1 0 2 1 4 4 6 7 7 5 2 1 3 1 2 1 2 1 7 2 1
6 5 3 4 7 8 6 8 11 13 14 11 2 3 3 5 1 5 5 5 4 3 3 2 5 4 5 3 3 3 4 2 2 3 0 4 2 1 0 1 4 3 3 2 2 2 4
9 7 5 4 3 6 9 8 11 13 14 6 2 2 3 4 2 6 5 7 5 6 3 4 5 3 4 5 6 4 2 0 1 2 1 4 3 1 1 4 6 2 1 4 3 1 4
11 9 7 7 5 4 7 8 8 12 16 4 1 0 3 1 4 1 4 6 2 3 2 3 3 4 7 7 5 3 4 4 2 4 5 2 5 4 3 1 1 2 4 4 4 4 2
14 12 10 8 8 4 5 5 6 9 10 1 1 2 3 2 4 3 3 3 3 2 4 3 4 5 2 5 3 4 3 1 1 4 5 6 0 2 1 1 3 3 4 4 5 3 7
17 15 13 10 7 4 4 4 5 6 9 1 1 1 4 4 1 7 5 4 4 3 4 3 2 2 3 2 2 4 4 1 1 2 5 3 3 6 7 5 5 4 4 4 4 4 5
18 16 14 11 8 7 5 4 5 5 8 1 2 4 1 3 4 5 5 2 4 4 4 3 2 6 7 6 3 4 2 2 1 1 2 5 4 4 5 6 5 5 5 9 10 6 9
19 18 16 14 11 10 7 3 3 5 7 2 4 4 2 1 1 5 5 6 8 3 5 3 4 4 5 7 9 7 7 5 6 1 5 1 3 3 5 1 5 6 9 12 14 4 13
22 20 18 16 13 12 9 5 2 2 2 2 0 1 4 0 3 6 5 7 8 4 3 1 6 3 3 7 3 2 3 4 6 9 7 5 5 4 5 2 4 7 12 11 6 5 9
24 22 20 18 15 13 11 7 4 3 2 1 1 1 3 4 3 6 3 6 7 5 3 1 1 5 1 5 7 6 9 9 8 6 3 6 5 1 4 3 2 7 2 5 10 9 18
25 23 22 20 18 16 13 10 7 4 3 2 1 2 3 3 3 3 4 3 3 2 2 2 2 2 3 3 4 4 4 2 3 5 3 2 5 2 3 4 7 6 4 7 7 10 11
27 25 25 22 19 17 15 12 10 8 6 1 2 2 2 4 6 5 5 6 5 3 2 1 3 1 5 4 3 6 6 6 3 2 3 4 5 4 2 4 6 6 3 4 3 7 2
28 27 26 25 21 18 15 13 12 10 7 3 2 3 1 3 4 5 4 6 6 4 4 0 3 2 4 2 2 4 5 5 6 8 6 3 1 5 2 4 10 8 5 5 1 8 5
30 28 27 25 23 20 17 15 14 11 8 5 2 2 2 3 4 4 4 5 3 3 6 5 5 1 3 1 4 5 4 8 4 5 8 9 9 5 3 2 10 7 5 7 5 3 4
32 30 28 25 23 21 19 17 16 12 8 7 2 1 2 3 2 2 3 1 2 6 6 3 3 3 4 3 1 2 3 1 4 5 1 4 9 9 12 10 2 7 6 3 3 5 3
Wind_Direction
331 347 357 360 3 4 4 4 1 360 2 1 359 358 355 351 349 343 333 327 324 321 320 320 323 315 338 55 359 330 342 45 42 65 64 115 89 116 98 102 76 78 122 55 73 84 81
305 327 346 354 359 0 2 1 359 358 357 355 356 354 351 347 343 336 330 320 316 312 311 316 312 311 83 80 213 359 12 36 28 61 47 34 131 107 96 68 57 91 97 110 49 87 96
281 301 321 344 355 357 359 359 357 354 354 355 352 350 347 341 337 329 325 317 314 307 302 313 300 228 79 172 73 80 51 42 354 100 97 53 125 67 133 101 160 132 90 89 92 119 104
253 276 299 323 340 349 352 355 353 353 352 351 351 347 341 337 333 328 321 314 309 301 288 300 304 55 157 246 196 42 37 51 31 52 87 98 90 95 69 117 55 62 69 38 169 155 102
227 252 297 314 327 334 341 344 349 351 349 348 346 342 338 331 328 325 319 313 305 297 138 121 62 112 246 336 81 90 31 112 97 73 69 90 65 90 111 99 72 17 258 227 280 195 132
44 299 335 341 335 331 333 337 340 343 345 346 343 339 333 328 325 324 318 293 285 301 55 116 70 38 8 184 108 53 356 100 107 103 33 42 59 85 59 93 243 211 236 240 265 177 177
39 30 23 360 341 332 323 323 332 340 340 340 340 339 333 328 325 324 340 40 23 349 29 192 177 148 148 82 29 24 355 82 86 56 44 9 68 122 201 177 129 120 168 238 194 168 177
38 29 19 7 356 344 327 312 323 332 336 337 338 338 333 328 326 324 306 91 152 165 319 162 164 122 156 183 105 359 23 102 83 120 44 21 39 156 117 138 125 133 159 260 147 115 193
23 15 13 13 3 344 318 302 318 331 335 338 338 336 334 329 324 20 355 38 333 168 114 309 193 169 178 139 133 213 30 108 102 112 76 145 147 140 124 105 135 138 179 194 221 88 188
16 12 11 18 353 350 349 297 320 336 337 338 339 338 337 328 55 329 5 337 330 204 60 285 40 346 24 113 64 326 13 121 39 146 121 103 22 149 79 198 133 253 169 130 124 55 299
4 1 0 11 2 360 1 357 320 329 330 334 334 337 341 344 262 355 317 325 307 36 0 255 124 132 28 127 140 12 10 34 141 136 110 176 137 139 219 279 190 164 112 97 99 98 46
359 337 338 359 357 1 6 6 349 322 325 327 332 328 342 6 345 269 325 321 47 47 260 128 61 114 88 4 43 77 71 54 135 95 46 97 135 79 124 49 50 144 92 54 65 104 42
312 322 322 333 355 354 355 2 353 338 333 320 322 320 320 347 282 327 326 42 44 147 339 221 183 169 121 178 334 110 132 113 157 105 230 63 63 70 115 92 1 76 66 341 342 8 248
290 308 310 320 336 351 355 354 354 351 335 318 318 317 278 235 321 349 36 50 188 233 221 104 92 86 185 155 171 13 97 218 216 101 121 165 294 157 5 138 240 252 171 148 259 280 296
262 285 313 319 325 341 351 353 349 346 338 334 317 326 313 285 302 93 75 83 213 211 171 142 128 142 244 251 150 137 219 217 206 177 163 141 249 352 54 65 98 132 230 138 103 60 309
239 247 283 335 341 331 328 347 349 343 338 333 346 350 273 311 86 76 83 227 236 236 136 140 184 169 189 199 170 170 185 208 190 203 280 184 117 334 103 76 61 160 122 59 31 155 278
221 227 242 272 307 331 332 328 342 345 336 313 18 55 248 330 78 58 169 225 258 242 236 172 207 159 185 181 177 208 217 234 132 131 64 135 103 21 26 199 185 109 279 48 108 72 178
228 225 245 272 291 315 323 332 338 346 337 38 110 314 298 88 68 82 168 202 257 261 168 257 164 177 190 166 175 229 213 203 95 162 159 193 133 184 199 331 136 213 188 161 124 214 55
225 228 239 258 275 286 315 331 336 346 356 26 212 263 319 90 158 221 257 258 233 233 223 206 226 198 193 178 180 191 191 350 182 152 167 190 261 16 308 11 356 234 195 119 109 101 203
227 229 235 240 256 246 294 334 341 346 352 66 91 189 325 41 351 143 164 231 215 196 242 206 195 125 134 184 243 176 184 174 337 171 115 90 152 185 199 199 131 191 189 192 144 147 182
225 226 226 227 240 217 252 302 352 348 357 143 139 250 198 211 252 159 160 187 187 210 211 182 224 206 182 188 169 197 131 131 16 143 41 133 219 186 258 234 187 214 183 181 203 200 202
217 222 223 222 226 208 228 254 336 347 354 240 166 153 10 160 48 136 163 218 187 216 178 237 195 226 197 185 188 205 147 193 199 154 169 310 198 155 281 122 198 255 233 207 221 243 272
212 213 220 218 215 203 214 226 280 349 11 244 125 17 116 344 144 124 214 203 205 172 213 179 205 163 188 236 194 94 109 74 139 151 173 162 146 124 264 2 304 281 231 186 182 212 201
209 209 208 216 214 207 202 212 234 255 139 306 266 122 113 248 179 196 182 192 214 213 231 115 160 162 201 98 107 71 65 78 77 52 92 142 124 108 233 354 263 248 124 172 196 229 213
206 206 207 207 209 212 210 214 218 215 197 222 306 232 172 219 201 198 182 189 115 72 180 211 245 335 133 64 63 57 353 56 62 40 62 42 121 99 165 202 296 287 189 163 183 280 216
202 203 205 207 209 211 213 215 211 208 200 185 249 216 255 131 237 173 165 166 166 171 359 163 29 124 54 82 96 164 200 201 207 150 68 80 73 119 121 175 225 242 169 179 190 296 351
201 200 203 201 204 206 211 212 205 199 197 154 269 238 197 199 239 150 180 171 142 125 148 53 163 136 38 94 111 160 229 166 178 179 167 110 45 176 187 264 286 244 145 157 107 251 330
201 199 200 196 197 198 201 209 195 193 187 149 248 223 259 222 261 218 185 138 120 137 152 168 84 331 47 110 150 215 195 216 154 167 177 167 155 194 98 139 269 138 107 179 223 310 280
199 198 196 192 191 190 193 202 189 189 188 164 206 167 270 252 277 288 293 279 138 160 137 157 150 159 198 96 257 101 193 125 161 226 6 244 191 181 187 210 229 207 219 200 195 237 271